Flag for Germany Weather past 2 weeks in Bad Hersfeld, Hesse, Germany

Now
66 °F

Scattered clouds.


Feels Like: 66 °F
Forecast: 46 / 63 °F
Wind: 9 mph from South

Location: Fritzlar Airport

Current Time: Sep 3, 2015 at 5:47:49 PM

Latest Report: Sep 3, 2015 at 5:00 PM


Visibility: N/A

Pressure: 29.92 "Hg

Humidity: 52%

Dew point: 48 °F

Location of Bad HersfeldLocation

Historic Weather in Bad Hersfeld — Graph

°F

Bad Hersfeld temperature yesterday

Maximum temperature yesterday: 66 °F (at 3:20 PM)
Minimum temperature yesterday: 48 °F (at 6:20 AM)
Average temperature yesterday: 56 °F

Past Weeks' High & Low Weather Summary

 TemperatureHumidityPressure
High88 °F (Aug 30, 3:20 PM)100% (Aug 21, 2:20 AM)30.30 "Hg (Aug 21, 2:20 AM)
Low48 °F (Sep 2, 6:20 AM)30% (Aug 22, 3:20 PM)29.65 "Hg (Aug 24, 2:20 PM)
Average64 °F75%30.00 "Hg
* Reported Aug 19 4:20 PM — Sep 3 4:20 PM, Bad Hersfeld, Weather by CustomWeather, © 2015

Note: Actual official high and low records may vary slightly from our data, if they occured in-between our weather recording intervals... More about our weather records

Advertising

Bad Hersfeld weather history for previous 24 hours

 ConditionsComfort  
Time TempWeatherWind HumidityBarometerVisibility
4:20 PM
Thu, Sep 3
66 °FPassing clouds.6 mph49%29.92 "HgN/A
3:20 PM61 °FSprinkles. Partly sunny.9 mph68%29.92 "HgN/A
2:20 PM64 °FScattered showers. Partly sunny.6 mph52%29.92 "HgN/A
1:20 PM61 °FScattered clouds.2 mph68%29.92 "HgN/A
12:20 PM61 °FScattered clouds.2 mph63%29.95 "HgN/A
11:20 AM61 °FPassing clouds.2 mph68%29.95 "HgN/A
10:20 AM57 °FPassing clouds.2 mph77%29.95 "HgN/A
9:20 AM55 °FPassing clouds.5 mph88%29.95 "HgN/A
8:20 AM54 °FPassing clouds.5 mph88%29.95 "HgN/A
7:20 AM52 °FFog.5 mph100%29.95 "HgN/A
6:20 AM52 °FPassing clouds.3 mph94%29.95 "HgN/A
5:20 AM54 °FPartly cloudy.10 mph94%29.95 "HgN/A
4:20 AM54 °FPassing clouds.5 mph94%29.95 "HgN/A
3:20 AM54 °FPassing clouds.2 mph94%29.95 "HgN/A
2:20 AM54 °FPassing clouds.5 mph94%29.98 "HgN/A
1:20 AM55 °FPassing clouds.5 mph88%29.98 "HgN/A
12:20 AM55 °FPassing clouds.3 mph88%29.98 "HgN/A
11:20 PM
Wed, Sep 2
55 °FPassing clouds.No wind88%29.98 "HgN/A
10:20 PM57 °FPassing clouds.2 mph88%30.01 "HgN/A
9:20 PM59 °FLight rain. Partly cloudy.2 mph82%30.01 "HgN/A
8:20 PM61 °FScattered showers. Partly sunny.3 mph77%29.98 "HgN/A
7:20 PM63 °FPartly sunny.3 mph64%29.98 "HgN/A
6:20 PM64 °FScattered clouds.5 mph60%29.98 "HgN/A
5:20 PM66 °FPassing clouds.7 mph52%29.98 "HgN/A
Weather by CustomWeather, © 2015

See weather overviewHow to use our weather pages